OSCAR 7 1 07530U 74089B 21017.51676865 -.00000039 00000-0 42075-4 0 9993 2 07530 101.8338 352.3065 0012134 313.4086 154.5784 12.53646944112812 OSCAR 11 (UoSAT 2) 1 14781U 84021B 21017.75526462 .00000069 00000-0 14495-4 0 9996 2 14781 97.5898 25.0492 0007645 208.1269 151.9534 14.83238010984594 OSCAR 19 (LUSAT) 1 20442U 90005G 21017.59664470 .00000014 00000-0 21690-4 0 9995 2 20442 98.7219 331.8620 0010748 242.7446 117.2644 14.32973574619222 EYESAT A 1 22825U 93061C 21017.32573213 -.00000013 00000-0 12874-4 0 9996 2 22825 98.9242 31.1734 0009403 112.3292 247.8887 14.30103765424385 ITAMSAT 1 22826U 93061D 21017.61163153 -.00000019 00000-0 10526-4 0 9995 2 22826 98.9183 31.3900 0009986 100.6306 259.6001 14.30441281424667 RADIO ROSTO 1 23439U 94085A 21017.57506826 -.00000037 00000-0 15882-3 0 9995 2 23439 64.8176 259.9763 0156020 2.3492 357.8132 11.27570064 73327 JAS 2 1 24278U 96046B 21017.82648941 .00000004 00000-0 39133-4 0 9998 2 24278 98.5844 105.6606 0350441 179.6632 180.4808 13.53101965206122 TECHSAT 1B 1 25397U 98043D 21017.58724237 -.00000005 00000-0 17229-4 0 9990 2 25397 98.7545 323.6983 0001897 127.3435 232.7916 14.23699398170024 ISS (ZARYA) 1 25544U 98067A 21017.90543098 .00000437 00000-0 15913-4 0 9996 2 25544 51.6468 6.0348 0000298 263.4064 181.3073 15.49297609265308 PCSAT 1 26931U 01043C 21017.51964595 .00000028 00000-0 42383-4 0 9998 2 26931 67.0525 309.9615 0007431 271.8921 88.1329 14.30603036 7651 SAUDISAT 1C 1 27607U 02058C 21017.51977187 .00000001 00000-0 20385-4 0 9996 2 27607 64.5559 79.8668 0029353 88.5141 271.9324 14.75703044972305 CUTE-1 1 27844U 03031E 21017.57880115 .00000039 00000-0 37268-4 0 9990 2 27844 98.6816 28.0706 0010366 150.5979 209.5783 14.22282552910535 CUBESAT XI 4 1 27848U 03031J 21017.52729040 .00000027 00000-0 31935-4 0 9990 2 27848 98.6878 28.5879 0010038 162.9948 197.1568 14.21863260910366 MOZHAYETS 4 1 27939U 03042A 21017.84501995 .00000137 00000-0 33206-4 0 9990 2 27939 98.1177 156.2178 0013649 41.1514 319.0717 14.66933807925443 CUBESAT XI 5 1 28895U 05043F 21017.84614632 .00000125 00000-0 32880-4 0 9992 2 28895 98.0358 154.5937 0015959 328.5734 31.4513 14.63854456812208 CUTE-1.7+APD II 1 32785U 08021C 21017.50062738 .00000247 00000-0 32071-4 0 9998 2 32785 97.5948 2.3646 0013908 138.6209 221.6064 14.88612506689713 DELFI C3 1 32789U 08021G 21017.85869913 .00001568 00000-0 10462-3 0 9996 2 32789 97.3947 58.9336 0010500 303.8873 56.1356 15.08397947694224 SEEDS 1 32791U 08021J 21017.53101172 .00000368 00000-0 42244-4 0 9991 2 32791 97.5574 8.4345 0014655 107.2215 253.0609 14.91248656690280 YUBELEINY 1 32953U 08025A 21017.72418722 .00000028 00000-0 12906-3 0 9992 2 32953 82.5048 144.6779 0018561 306.5413 53.3954 12.43099461574253 PRISM (HITOMI) 1 33493U 09002B 21017.58800175 .00000277 00000-0 29395-4 0 9996 2 33493 98.1697 333.0745 0015948 66.9669 293.3232 14.97377872651740 KKS-1 (KISEKI) 1 33499U 09002H 21017.59857740 .00000095 00000-0 21875-4 0 9996 2 33499 98.2891 244.0021 0009515 155.1312 205.0357 14.75607475644167 SWISSCUBE 1 35932U 09051B 21017.49541580 .00000118 00000-0 37616-4 0 9991 2 35932 98.6067 212.6922 0007461 183.1208 176.9944 14.56477148600985 BEESAT 1 35933U 09051C 21017.53607240 .00000097 00000-0 32875-4 0 9991 2 35933 98.6043 214.5902 0005423 193.6760 166.4291 14.56542458601060 ITUPSAT 1 1 35935U 09051E 21017.51939714 .00000087 00000-0 31170-4 0 9991 2 35935 98.6149 214.7397 0007737 196.8682 163.2259 14.55680593600810 XIWANG-1 (HOPE-1) 1 36122U 09072B 21017.88944619 -.00000036 00000-0 17390-4 0 9996 2 36122 100.1131 4.9127 0008173 90.0571 270.1474 13.16358660533080 TISAT 1 1 36799U 10035E 21017.45337314 .00000527 00000-0 58690-4 0 9990 2 36799 98.2019 202.1641 0011983 354.5767 5.5319 14.91572248570828 JUGNU 1 37839U 11058B 21017.53249667 .00000327 00000-0 32492-4 0 9994 2 37839 19.9625 64.4815 0018679 228.2303 282.9501 14.12700760479097 SRMSAT 1 37841U 11058D 21017.62909972 .00000301 00000-0 20363-4 0 9995 2 37841 19.9713 132.6534 0011998 76.5937 45.2069 14.10683238478409 M-CUBED/EXP-1 PRIME 1 37855U 11061F 21017.54989012 .00001464 00000-0 78351-4 0 9999 2 37855 101.7265 222.6897 0168604 159.3149 201.4996 15.07094320503443 HORYU 2 1 38340U 12025D 21017.44530213 .00000176 00000-0 33446-4 0 9999 2 38340 98.2536 81.8454 0012667 80.0520 280.2118 14.75961451456112 STRAND 1 1 39090U 13009E 21017.53629254 .00000028 00000-0 24747-4 0 9999 2 39090 98.4365 223.1855 0009405 14.7121 345.4337 14.35164199413390 SOMP 1 39134U 13015E 21017.21019858 .00001350 00000-0 67975-4 0 9992 2 39134 64.8633 304.0413 0012611 219.6412 140.3795 15.21881085428195 BEESAT 3 1 39135U 13015F 21017.22700826 .00001082 00000-0 61158-4 0 9995 2 39135 64.8681 330.7470 0017786 208.3069 151.7093 15.18833085427671 BEESAT 2 1 39136U 13015G 21017.22837223 .00001121 00000-0 63813-4 0 9992 2 39136 64.8743 336.5229 0029293 263.4635 96.3156 15.18210229427554 CUBEBUG 1 1 39153U 13018D 21017.83343230 .00000221 00000-0 35507-4 0 9990 2 39153 97.9888 124.1050 0018113 119.8728 240.4287 14.80837919417510 ZACUBE 1 39417U 13066B 21017.56057093 .00000252 00000-0 37868-4 0 9991 2 39417 97.5793 9.8359 0057396 296.5684 62.9654 14.81410124386735 TRITON 1 1 39427U 13066M 21017.83618140 .00000221 00000-0 42755-4 0 9995 2 39427 97.7569 333.2146 0114793 112.1921 249.1512 14.68133072383311 GOMX 1 1 39430U 13066Q 21017.84933598 .00000129 00000-0 32695-4 0 9996 2 39430 97.8086 309.6143 0149443 228.9960 129.8251 14.59522069381076 HUMSAT D 1 39433U 13066T 21017.83318645 .00000634 00000-0 66171-4 0 9995 2 39433 97.4856 50.2704 0030979 163.4542 196.7696 14.92705947389455 CUBEBUG 2 1 39440U 13066AA 21017.49940136 .00000290 00000-0 46969-4 0 9992 2 39440 97.6572 354.4772 0080189 6.4332 353.7889 14.76141934384158 FUNCUBE 1 1 39444U 13066AE 21017.56837324 .00000298 00000-0 42764-4 0 9995 2 39444 97.5716 12.1699 0056394 287.4915 72.0141 14.82294449385088 UWE-3 1 39446U 13066AG 21017.52755986 .00000265 00000-0 41668-4 0 9992 2 39446 97.6201 1.5773 0069152 332.6187 27.1387 14.78677776384204 SPROUT 1 39770U 14029E 21017.74085851 .00000808 00000-0 93845-4 0 9990 2 39770 97.9061 129.3039 0008771 350.9626 9.1446 14.88129633360920 UNISAT 6 1 40012U 14033C 21017.82604882 .00000171 00000-0 32559-4 0 9994 2 40012 97.6868 228.0399 0058862 28.6406 331.8015 14.74227463354004 DUCHIFAT 1 1 40021U 14033M 21017.56190366 .00000585 00000-0 64806-4 0 9991 2 40021 97.9605 316.2994 0011752 306.3394 53.6739 14.91147067357797 QB50P1 1 40025U 14033R 21017.52529027 .00000296 00000-0 37255-4 0 9998 2 40025 97.9264 307.9030 0011525 320.7822 39.2559 14.89306506356953 CHUBUSAT 1 1 40300U 14070C 21017.78383909 .00000696 00000-0 32503-4 0 9995 2 40300 97.2655 86.2689 0019403 173.8913 306.4445 15.22889182344127 NUDT-PHONESAT 1 40900U 15049B 21017.75151034 .00002509 00000-0 10237-3 0 9991 2 40900 97.4255 32.9295 0010935 316.6299 158.7817 15.25316493295845 ZDPS 2A 1 40901U 15049C 21017.80679398 .00001294 00000-0 65152-4 0 9993 2 40901 97.4625 26.7629 0013013 354.2724 357.4296 15.18936795295091 ZDPS 2B 1 40902U 15049D 21017.75611811 .00001425 00000-0 71378-4 0 9997 2 40902 97.4640 23.9964 0012947 352.0963 181.6259 15.18952411295062 XW-2A 1 40903U 15049E 21017.76514064 .00002010 00000-0 45583-4 0 9991 2 40903 97.2593 72.6237 0012090 196.5875 273.4355 15.44222843299535 KAITUO 1A 1 40904U 15049F 21017.80289382 .00000609 00000-0 35155-4 0 9995 2 40904 97.4821 21.6914 0014794 6.8793 94.0449 15.15966470294718 OBJECT G 1 40905U 15049G 21017.78767725 .00000633 00000-0 37607-4 0 9996 2 40905 97.4937 18.7969 0015646 5.2595 96.6142 15.14794962294525 XW-2C 1 40906U 15049H 21017.73617638 .00000836 00000-0 46344-4 0 9992 2 40906 97.4826 22.0371 0014619 357.6988 116.4148 15.16431232294726 XW-2D 1 40907U 15049J 21017.75852721 .00000643 00000-0 36179-4 0 9990 2 40907 97.4810 21.8083 0013921 354.4224 109.8580 15.16708942294754 LILACSAT 2 1 40908U 15049K 21017.77599451 .00000131 00000-0 10756-4 0 9996 2 40908 97.4987 19.8831 0016151 7.0082 165.8493 15.14253405294425 XW-2F 1 40910U 15049M 21017.78463513 .00001072 00000-0 55173-4 0 9996 2 40910 97.4706 24.7167 0013930 341.4231 192.0093 15.18523209294858 XW-2B 1 40911U 15049N 21017.76594387 .00000745 00000-0 41483-4 0 9994 2 40911 97.4814 22.5109 0013796 355.5562 177.9979 15.16630671294646 KAITUO 1B 1 40912U 15049P 21017.75579906 .00001353 00000-0 64055-4 0 9990 2 40912 97.4465 29.0059 0013303 314.9428 159.3940 15.20994468295284 TIANWANG 1C (TW-1C) 1 40926U 15051B 21017.75510213 .00110553 00000-0 38993-3 0 9998 2 40926 97.0502 78.7714 0001915 347.4201 109.3021 15.88824888300714 TIANWANG 1B (TW-1B) 1 40927U 15051C 21017.74657488 .00059003 00000-0 31598-3 0 9990 2 40927 97.0539 76.0788 0003236 32.6842 60.1616 15.80154173300415 TIANWANG 1A (TW-1A) 1 40928U 15051D 21017.76396248 .00002904 00000-0 64829-4 0 9999 2 40928 97.0914 46.3312 0011570 119.4571 353.6817 15.44276703298423 LAPAN A2 1 40931U 15052B 21017.72582331 .00000805 00000-0 23058-4 0 9997 2 40931 6.0000 247.3536 0013214 67.8203 292.3364 14.76660049286987 LQSAT 1 40958U 15057A 21017.82483458 .00000029 00000-0 12059-4 0 9999 2 40958 97.8256 79.8883 0018090 176.5510 183.5822 14.73151675284060 CHUBUSAT 2 1 41338U 16012B 21017.52628408 .00000337 00000-0 19385-4 0 9998 2 41338 31.0042 65.5510 0013670 77.7421 282.4745 15.00423945269910 CHUBUSAT 3 1 41339U 16012C 21017.76409300 .00000356 00000-0 20793-4 0 9999 2 41339 31.0126 61.4294 0013468 87.8632 272.3538 15.00580260269944 OUFTI-1 1 41458U 16025C 21017.84832816 .00002862 00000-0 14327-3 0 9995 2 41458 98.1224 146.1552 0160391 207.1318 152.1462 15.07779591259778 E-STAR-2 1 41459U 16025D 21017.76106590 .00002939 00000-0 14816-3 0 9998 2 41459 98.1201 145.2865 0162491 209.9435 149.2460 15.07270682259710 AAUSAT 4 1 41460U 16025E 21017.81393595 .00004392 00000-0 21080-3 0 9995 2 41460 98.1207 148.5068 0150389 195.8076 163.8410 15.09983702259977 NUSAT 1 1 41557U 16033B 21017.76787384 .00001452 00000-0 54458-4 0 9998 2 41557 97.3986 112.6348 0014495 54.0624 103.2444 15.28775995258501 BEESAT 4 1 41619U 16040W 21017.09922162 .00001555 00000-0 65411-4 0 9991 2 41619 97.2926 77.3178 0011942 139.9877 220.2243 15.24798224241941 PRATHAM 1 41783U 16059A 21017.39609907 .00000056 00000-0 19988-4 0 9998 2 41783 97.9881 72.4961 0033530 4.6546 355.4962 14.63105660230163 ALSAT 1N 1 41789U 16059G 21017.77482337 .00000107 00000-0 29113-4 0 9990 2 41789 97.9921 76.1924 0028103 350.1337 9.9299 14.64380872230391 NAYIF 1 1 42017U 17008BX 21017.72211866 .00001704 00000-0 66280-4 0 9992 2 42017 97.3361 87.9531 0004487 287.7622 72.3128 15.27374323218242 MAX VALIER SAT 1 42778U 17036P 21017.55437449 .00000935 00000-0 42434-4 0 9995 2 42778 97.2776 70.9680 0011671 356.6739 3.4419 15.23142071198312